Weather History for EGNH - March, 2014

Change the Weather History Date:

Wednesday, March 12, 2014

  Actual Average Record
Temperature  
Mean Temperature 42 °F -  
Max Temperature 53 °F 49 °F 54 °F (2015)
Min Temperature 32 °F 39 °F 28 °F (2006)
Degree Days  
Heating Degree Days 22    
Moisture  
Dew Point 38 °F    
Average Humidity 83    
Maximum Humidity 100    
Minimum Humidity 58    
Precipitation  
Precipitation 0.00 in - - ()
Sea Level Pressure  
Sea Level Pressure 30.49 in    
Wind  
Wind Speed 7 mph ()    
Max Wind Speed 12 mph    
Max Gust Speed -    
Visibility 2.1 miles    
Events Fog    
Averages and records for this station are not official NWS values.
T = Trace of Precipitation, MM = Missing Value Source: Averaged Metar Reports

Daily Weather History Graph

Daily Weather History Graph

Search for Another Location

Airport or City:

Trip Planner

Search our weather history database for the weather conditions in past years. The results will help you decide how hot, cold, wet, or windy it might be!

Date:

Astronomy

Mar. 12, 2014 Rise Set
Actual Time 6:34 AM GMT 6:10 PM GMT
Civil Twilight 5:59 AM GMT 6:45 PM GMT
Nautical Twilight 5:18 AM GMT 7:26 PM GMT
Astronomical Twilight 4:36 AM GMT 8:08 PM GMT
Moon 2:01 PM GMT (3/12) 4:25 AM GMT (3/12)
Length of Visible Light 12h 45m
Length of Day
11h 35m
Waxing Gibbous, 84% of the Moon is Illuminated
Mar 12
Waxing Gibbous
Mar 16
Full
Mar 24
Last Quarter
Mar 30
New
Apr 7
First Quarter

Hourly Weather History & Observations

Time (GMT) Temp. Windchill Dew Point Humidity Pressure Visibility Wind Dir Wind Speed Gust Speed Precip Events Conditions
12:00 AM 39 °F - 34 °F 75%  in - East 9.2 mph - -  
1:00 AM 36 °F - 31 °F 77%  in - East 8.1 mph - -  
2:00 AM 35 °F - 30 °F 75%  in - East 5.8 mph - -  
3:00 AM 35 °F - 32 °F 83%  in - East 8.1 mph - -  
4:00 AM 34 °F - 31 °F 86%  in - East 6.9 mph - -  
5:00 AM 33 °F - 31 °F 90%  in - East 10.4 mph - -  
6:00 AM 33 °F - 31 °F 89%  in - East 6.9 mph - -  
6:20 AM 33.8 °F 25.8 °F 32.0 °F 93% 30.54 in - East 10.4 mph - N/A   Clear
6:50 AM 33.8 °F 26.4 °F 32.0 °F 93% 30.54 in - East 9.2 mph - N/A   Clear
7:00 AM 33 °F - 31 °F 91%  in - East 8.1 mph - -  
7:20 AM 35.6 °F 29.2 °F 33.8 °F 93% 30.54 in - East 8.1 mph - N/A   Clear
7:50 AM 35.6 °F 30.7 °F 33.8 °F 93% 30.54 in - East 5.8 mph - N/A   Clear
8:00 AM 35 °F - 33 °F 92%  in - ESE 6.9 mph - -  
8:20 AM 37.4 °F 31.4 °F 35.6 °F 93% 30.54 in - East 8.1 mph - N/A   Clear
8:50 AM 39.2 °F 33.0 °F 35.6 °F 87% 30.54 in - East 9.2 mph - N/A   Clear
9:00 AM 40 °F - 35 °F 75%  in - ESE 8.1 mph - -  
9:20 AM 42.8 °F 38.0 °F 35.6 °F 76% 30.54 in - East 8.1 mph - N/A   Clear
9:50 AM 44.6 °F 40.7 °F 35.6 °F 71% 30.54 in - SE 6.9 mph - N/A   Clear
10:00 AM 44 °F - 34 °F 59%  in - SE 8.1 mph - -  
10:20 AM 46.4 °F 41.9 °F 37.4 °F 71% 30.54 in - SE 9.2 mph - N/A   Clear
10:50 AM 48.2 °F - 37.4 °F 66% 30.54 in - ESE 10.4 mph - N/A   Clear
11:00 AM 48 °F - 38 °F 58%  in - SE 11.5 mph - -  
11:20 AM 50.0 °F - 41.0 °F 71% 30.51 in - SE 8.1 mph - N/A   Clear
11:50 AM 50.0 °F - 41.0 °F 71% 30.51 in - SE 6.9 mph - N/A   Clear
12:00 PM 50 °F - 40 °F 60%  in - SSE 8.1 mph - -  
12:20 PM 51.8 °F - 42.8 °F 71% 30.51 in - SE 6.9 mph - N/A   Clear
12:50 PM 53.6 °F - 44.6 °F 72% 30.48 in 4.3 mi SE 8.1 mph - N/A   Haze
1:00 PM 53 °F - 43 °F 61%  in - SSE 9.2 mph - -  
1:20 PM 51.8 °F - 42.8 °F 71% 30.48 in 4.3 mi SSW 6.9 mph - N/A   Haze
1:50 PM 50.0 °F - 44.6 °F 82% 30.48 in 4.3 mi WSW 6.9 mph - N/A   Unknown
2:00 PM 48 °F - 43 °F 76%  in - WSW 8.1 mph - -  
2:20 PM 48.2 °F - 44.6 °F 87% 30.48 in 2.5 mi WSW 5.8 mph - N/A   Haze
2:50 PM 48.2 °F - 44.6 °F 87% 30.48 in 2.5 mi WSW 6.9 mph - N/A   Haze
3:00 PM 47 °F - 43 °F 81%  in - West 8.1 mph - -  
3:20 PM 48.2 °F - 44.6 °F 87% 30.45 in 2.2 mi WSW 5.8 mph - N/A   Haze
3:50 PM 48.2 °F - 44.6 °F 87% 30.45 in 1.9 mi SW 3.5 mph - N/A   Haze
4:00 PM 48 °F - 43 °F 77%  in - WSW 4.6 mph - -  
4:50 PM 46.4 °F 45.2 °F 42.8 °F 87% 30.45 in 1.9 mi West 3.5 mph - N/A   Haze
5:00 PM 46 °F - 42 °F 83%  in - West 4.6 mph - -  
5:20 PM 46.4 °F 44.3 °F 42.8 °F 87% 30.45 in 1.9 mi West 4.6 mph - N/A   Haze
5:50 PM 44.6 °F 43.1 °F 41.0 °F 87% 30.45 in 1.9 mi West 3.5 mph - N/A   Haze
6:00 PM 43 °F - 41 °F 88%  in - West 4.6 mph - -  
6:20 PM 44.6 °F 42.2 °F 41.0 °F 87% 30.45 in 1.6 mi West 4.6 mph - N/A   Haze
6:50 PM 44.6 °F 42.2 °F 42.8 °F 93% 30.45 in 1.6 mi West 4.6 mph - N/A   Haze
7:00 PM 42 °F - 41 °F 97%  in - West 4.6 mph - -  
7:20 PM 42.8 °F 41.1 °F 41.0 °F 93% 30.45 in 0.6 mi NW 3.5 mph - N/A   Haze
7:50 PM 41.0 °F - 41.0 °F 100% 30.45 in 0.7 mi North 2.3 mph - N/A   Haze
8:00 PM 39 °F - 38 °F 96%  in - NNE 2.3 mph - -  
8:20 PM 41.0 °F - 39.2 °F 93% 30.45 in 0.7 mi NNE 2.3 mph - N/A   Haze
8:50 PM 41.0 °F - 39.2 °F 93% 30.45 in 0.1 mi NNE 2.3 mph - N/A Fog Fog
9:00 PM 38 °F - 38 °F 99%  in - NE 2.3 mph - -  
10:00 PM 39 °F - 39 °F 100%  in - Calm Calm - -  
11:00 PM 38 °F - 38 °F 100%  in - NW 1.2 mph - -